Weather History for KCLI - May, 2013

Change the Weather History Date:

Saturday, May 25, 2013

  Actual Average Record
Temperature  
Mean Temperature 50 °F -  
Max Temperature 64 °F 70 °F 88 °F (1965)
Min Temperature 37 °F 46 °F 34 °F (1988)
Degree Days  
Heating Degree Days 14    
Moisture  
Dew Point 37 °F    
Average Humidity 62    
Maximum Humidity 100    
Minimum Humidity 34    
Precipitation  
Precipitation 0.00 in - - ()
Sea Level Pressure  
Sea Level Pressure 30.36 in    
Wind  
Wind Speed 4 mph (ESE)    
Max Wind Speed 12 mph    
Max Gust Speed -    
Visibility 10 miles    
Events      
Averages and records for this station are not official NWS values.
T = Trace of Precipitation, MM = Missing Value Source: NWS Daily Summary

Daily Weather History Graph

Daily Weather History Graph

Search for Another Location

Airport or City:

Trip Planner

Search our weather history database for the weather conditions in past years. The results will help you decide how hot, cold, wet, or windy it might be!

Date:

Astronomy

May. 25, 2013 Rise Set
Actual Time 5:17 AM CDT 8:27 PM CDT
Civil Twilight 4:42 AM CDT 9:02 PM CDT
Nautical Twilight 3:56 AM CDT 9:47 PM CDT
Astronomical Twilight 3:01 AM CDT 10:43 PM CDT
Moon 9:14 PM CDT (5/25) 5:44 AM CDT (5/25)
Length of Visible Light 16h 20m
Length of Day
15h 09m
Full, 100% of the Moon is Illuminated
May 25
Full
May 31
Last Quarter
Jun 8
New
Jun 16
First Quarter
Jun 23
Full

Hourly Weather History & Observations

Time (CDT) Temp. Windchill Dew Point Humidity Pressure Visibility Wind Dir Wind Speed Gust Speed Precip Events Conditions
12:15 AM 46.4 °F 45.2 °F 39.2 °F 76% 30.34 in 10.0 mi SSE 3.5 mph - N/A   Clear
12:35 AM 44.6 °F 43.1 °F 39.2 °F 81% 30.34 in 10.0 mi SSE 3.5 mph - N/A   Clear
12:55 AM 44.6 °F - 39.2 °F 81% 30.33 in 10.0 mi Calm Calm - N/A   Clear
1:15 AM 44.6 °F - 39.2 °F 81% 30.33 in 10.0 mi Calm Calm - N/A   Clear
1:35 AM 42.8 °F - 39.2 °F 87% 30.34 in 10.0 mi Calm Calm - N/A   Clear
1:55 AM 42.8 °F 41.1 °F 41.0 °F 93% 30.34 in 10.0 mi ENE 3.5 mph - N/A   Clear
2:15 AM 42.8 °F - 41.0 °F 93% 30.34 in 10.0 mi Calm Calm - N/A   Clear
2:35 AM 42.8 °F 41.1 °F 39.2 °F 87% 30.35 in 10.0 mi NE 3.5 mph - N/A   Clear
2:55 AM 42.8 °F - 37.4 °F 81% 30.35 in 10.0 mi Calm Calm - N/A   Clear
3:15 AM 42.8 °F - 37.4 °F 81% 30.35 in 10.0 mi Calm Calm - N/A   Clear
3:35 AM 41.0 °F - 37.4 °F 87% 30.36 in 10.0 mi Calm Calm - N/A   Clear
3:55 AM 39.2 °F - 37.4 °F 93% 30.36 in 10.0 mi Calm Calm - N/A   Clear
4:15 AM 39.2 °F - 37.4 °F 93% 30.35 in 10.0 mi Calm Calm - N/A   Clear
4:35 AM 39.2 °F - 35.6 °F 87% 30.35 in 10.0 mi Calm Calm - N/A   Clear
4:55 AM 41.0 °F - 37.4 °F 87% 30.36 in 10.0 mi Calm Calm - N/A   Clear
5:15 AM 37.4 °F - 35.6 °F 93% 30.36 in 10.0 mi Calm Calm - N/A   Clear
5:35 AM 37.4 °F - 37.4 °F 100% 30.36 in 10.0 mi Calm Calm - N/A   Clear
5:55 AM 39.2 °F 37.0 °F 37.4 °F 93% 30.37 in 10.0 mi NE 3.5 mph - N/A   Clear
6:15 AM 41.0 °F - 39.2 °F 93% 30.40 in 10.0 mi Calm Calm - N/A   Clear
6:35 AM 41.0 °F 38.0 °F 41.0 °F 100% 30.40 in 10.0 mi ENE 4.6 mph - N/A   Clear
6:55 AM 42.8 °F 41.1 °F 39.2 °F 87% 30.41 in 10.0 mi ENE 3.5 mph - N/A   Clear
7:15 AM 44.6 °F 43.1 °F 37.4 °F 76% 30.41 in 10.0 mi ENE 3.5 mph - N/A   Clear
7:35 AM 46.4 °F - 37.4 °F 71% 30.42 in 10.0 mi Calm Calm - N/A   Clear
7:55 AM 50.0 °F - 37.4 °F 62% 30.41 in 10.0 mi ESE 4.6 mph - N/A   Clear
8:15 AM 50.0 °F - 35.6 °F 58% 30.41 in 10.0 mi SE 5.8 mph - N/A   Clear
8:35 AM 51.8 °F - 35.6 °F 54% 30.41 in 10.0 mi SE 4.6 mph - N/A   Clear
8:55 AM 51.8 °F - 35.6 °F 54% 30.41 in 10.0 mi ESE 6.9 mph - N/A   Clear
9:15 AM 53.6 °F - 35.6 °F 51% 30.41 in 10.0 mi ESE 9.2 mph - N/A   Clear
9:35 AM 55.4 °F - 33.8 °F 44% 30.41 in 10.0 mi SE 8.1 mph - N/A   Clear
9:55 AM 55.4 °F - 33.8 °F 44% 30.41 in 10.0 mi SE 8.1 mph - N/A   Clear
10:15 AM 55.4 °F - 32.0 °F 41% 30.41 in 10.0 mi ESE 8.1 mph - N/A   Clear
10:35 AM 55.4 °F - 33.8 °F 44% 30.40 in 10.0 mi ESE 8.1 mph - N/A   Clear
10:55 AM 55.4 °F - 33.8 °F 44% 30.41 in 10.0 mi SE 9.2 mph - N/A   Clear
11:15 AM 55.4 °F - 35.6 °F 47% 30.40 in 10.0 mi SE 4.6 mph - N/A   Clear
11:35 AM 57.2 °F - 35.6 °F 44% 30.40 in 10.0 mi South 8.1 mph - N/A   Clear
11:55 AM 57.2 °F - 35.6 °F 44% 30.39 in 10.0 mi SE 8.1 mph - N/A   Clear
12:15 PM 59.0 °F - 35.6 °F 42% 30.38 in 10.0 mi SE 9.2 mph - N/A   Clear
12:35 PM 60.8 °F - 35.6 °F 39% 30.38 in 10.0 mi SSE 6.9 mph - N/A   Clear
12:55 PM 60.8 °F - 33.8 °F 36% 30.38 in 10.0 mi South 9.2 mph - N/A   Clear
1:15 PM 60.8 °F - 35.6 °F 39% 30.37 in 10.0 mi SSE 9.2 mph - N/A   Clear
1:55 PM 62.6 °F - 37.4 °F 39% 30.35 in 10.0 mi SE 10.4 mph - N/A   Clear
2:15 PM 62.6 °F - 37.4 °F 39% 30.35 in 10.0 mi SSE 8.1 mph - N/A   Clear
2:35 PM 62.6 °F - 37.4 °F 39% 30.34 in 10.0 mi SE 8.1 mph - N/A   Clear
2:55 PM 62.6 °F - 37.4 °F 39% 30.34 in 10.0 mi East 4.6 mph - N/A   Clear
3:15 PM 64.4 °F - 37.4 °F 37% 30.34 in 10.0 mi ESE 5.8 mph - N/A   Clear
3:35 PM 64.4 °F - 35.6 °F 34% 30.34 in 10.0 mi SE 5.8 mph - N/A   Clear
3:55 PM 64.4 °F - 37.4 °F 37% 30.34 in 10.0 mi SE 6.9 mph - N/A   Clear
4:15 PM 62.6 °F - 35.6 °F 37% 30.34 in 10.0 mi SE 8.1 mph - N/A   Clear
4:35 PM 62.6 °F - 35.6 °F 37% 30.33 in 10.0 mi SE 5.8 mph - N/A   Clear
5:15 PM 64.4 °F - 35.6 °F 34% 30.33 in 10.0 mi East 6.9 mph - N/A   Clear
5:35 PM 62.6 °F - 33.8 °F 34% 30.33 in 10.0 mi SE 8.1 mph - N/A   Clear
5:55 PM 62.6 °F - 35.6 °F 37% 30.32 in 10.0 mi SE 5.8 mph - N/A   Clear
6:55 PM 60.8 °F - 33.8 °F 36% 30.31 in 10.0 mi East 10.4 mph - N/A   Clear
7:15 PM 59.0 °F - 33.8 °F 39% 30.31 in 10.0 mi East 11.5 mph - N/A   Clear
7:35 PM 59.0 °F - 35.6 °F 42% 30.31 in 10.0 mi ESE 6.9 mph - N/A   Clear
7:55 PM 59.0 °F - 35.6 °F 42% 30.32 in 10.0 mi ESE 6.9 mph - N/A   Clear
8:35 PM 53.6 °F - 35.6 °F 51% 30.32 in 10.0 mi East 4.6 mph - N/A   Clear
8:55 PM 53.6 °F - 35.6 °F 51% 30.32 in 10.0 mi East 5.8 mph - N/A   Clear
9:15 PM 53.6 °F - 35.6 °F 51% 30.32 in 10.0 mi ESE 4.6 mph - N/A   Clear
9:35 PM 50.0 °F - 37.4 °F 62% 30.32 in 10.0 mi Calm Calm - N/A   Clear
9:55 PM 50.0 °F - 37.4 °F 62% 30.33 in 10.0 mi Calm Calm - N/A   Clear
10:15 PM 48.2 °F - 35.6 °F 62% 30.33 in 10.0 mi Calm Calm - N/A   Clear
10:35 PM 44.6 °F - 37.4 °F 76% 30.33 in 10.0 mi Calm Calm - N/A   Clear
10:55 PM 44.6 °F - 39.2 °F 81% 30.33 in 10.0 mi Calm Calm - N/A   Clear
11:15 PM 44.6 °F - 37.4 °F 76% 30.33 in 10.0 mi Calm Calm - N/A   Clear
11:35 PM 44.6 °F - 37.4 °F 76% 30.33 in 10.0 mi Calm Calm - N/A   Clear
11:55 PM 42.8 °F - 39.2 °F 87% 30.32 in 10.0 mi Calm Calm - N/A   Clear